Regional Weather Roundup
Issued by NWS Jackson, KY

Home | Current Version | Previous Version | Text Only | Print | Product List | Glossary Off
Versions: 1 2 3 4 5 6 7 8 9 10 11 12 13 14 15 16 17 18 19 20 21 22 23 24 25 26 27 28 29 30 31 32 33 34 35 36 37 38 39 40 41 42 43 44 45 46 47

000
ASUS43 KJKL 012310
RWRJKL

EAST KENTUCKY HOURLY WEATHER ROUNDUP
NATIONAL WEATHER SERVICE JACKSON KY
600 PM EST SUN MAR 01 2015

NOTE: "FAIR" INDICATES FEW OR NO CLOUDS BELOW 12,000 FEET WITH
NO SIGNIFICANT WEATHER AND/OR OBSTRUCTIONS TO VISIBILITY.

* THESE REPORTS ARE NOT UNDER NWS QUALITY CONTROL AND MAY NOT
  REPORT WEATHER SUCH AS PRECIPITATION AND FOG.

KYZ079-080-083-085-087-088-110-112-115-119-120-020000
...EASTERN KENTUCKY...

CITY           SKY/WX    TMP DP  RH WIND       PRES   REMARKS
JACKSON        CLOUDY    42  40  92 SW5       30.25F
LONDON         CLOUDY    48  43  82 SW6       30.28S
SOMERSET*      CLOUDY    45  45 100 S5        30.30S FOG
MONTICELLO*    CLOUDY    50  49  96 SW6       30.31F
MIDDLESBORO*   FOG       39  39 100 CALM      30.33S VSB<1/4
HAZARD APT*    CLOUDY    48  45  87 SW7       30.26F
BLACK MTN*       N/A     39  39 100 S6          N/A  WCI  35
BIG SANDY*     CLOUDY    42  40  95 S5        30.25F
MOREHEAD APT*  CLOUDY    43  41  93 SW12      30.28R FOG
$$

KYZ035-036-041-042-044-050-067-078-099-020000
...CENTRAL KENTUCKY...

CITY           SKY/WX    TMP DP  RH WIND       PRES   REMARKS
MT STERLING*   CLOUDY    41  41 100 W8        30.27R FOG
FLEMING/MASON* FOG       37  37 100 SW7       30.27S VSB 0   WCI  32
DANVILLE*      CLOUDY    41  41 100 SW3       30.28R FOG
RICHMOND*      CLOUDY    45  43  93 SW9       30.26S
LEXINGTON      LGT RAIN  40  40 100 W7        30.27R VSB 1/4
FRANKFORT      FOG       38  37  97 NW8       30.27R VSB 1   WCI  32
$$

KYZ091>093-OHZ055-061-077-WVZ005-015-034-035-042-020000
...SOUTHERN OHIO/WEST VIRGINIA...

CITY           SKY/WX    TMP DP  RH WIND       PRES   REMARKS
COLUMBUS       CLOUDY    32  31  96 CALM      30.23S FOG
DAYTON         FOG       31  28  89 CALM      30.26R VSB 1
WILMINGTON     MIX PCPN  32  31  96 W9        30.24R FOG     WCI  24
HUNTINGTON     CLOUDY    39  38  96 S6        30.25F FOG     WCI  35
CHARLESTON     LGT RAIN  41  39  93 SW6       30.25F FOG
PINEVILLE*     CLOUDY    38  38 100 MISG      30.32S FOG
BECKLEY        CLOUDY    41  38  89 W8        30.25F
BLUEFIELD      LGT RAIN  46  42  86 W9        30.26F
$$

VAZ002-007-008-TNZ017-027-036-066-071-020000
...SOUTHWEST VIRGINIA/EAST TENNESSEE...

CITY           SKY/WX    TMP DP  RH WIND       PRES   REMARKS
WISE*          CLOUDY    43  43 100 W15       30.29S FOG
JONESVILLE*    LGT RAIN  37  37 100 CALM      30.34F
ABINGDON*      CLOUDY    47  41  80 SW7       30.30F
BRISTOL        CLOUDY    46  42  86 CALM      30.31F
KNOXVILLE      CLOUDY    47  41  80 W6        30.34F
OAK RIDGE      CLOUDY    45  43  93 SW3       30.35F FOG
CROSSVILLE     CLOUDY    47  44  90 S6        30.30F FOG
NASHVILLE      CLOUDY    51  49  92 S3        30.30F
$$

...KEY TO REMARKS...
VSB - VISIBILITY IN MILES
WCI - WIND CHILL INDEX
HX  - HEAT INDEX

$$


USA.gov is the U.S. government's official web portal to all federal, state and local government web resources and services.